This demonstration page uses our WeatherBlox Daily Observations layout. Learn more.

Left ArrowRight Arrow

39.08367, -84.50855

Hourly Observations for May 3, 2020

Temp ( °F °C ) Dew Point ( °F °C ) Humidity (%) Winds ( mph kmh ) Pressure ( in mb ) Visibility ( mi km ) Precip ( " mm )
12:53 am 00:53 Clear 61 16.1 57 13.9 87 87 WNW 3 6 29.91 1013 10 16.0934 0 0
1:53 am 01:53 Clear 62 16.7 58 14.4 86 86 SW 7 11 29.89 1012 10 16.0934 0 0
2:53 am 02:53 Mostly Clear with Light Rain 65 18.3 59 15 81 81 Calm 29.9 1013 10 16.0934 0.001 0.001
3:53 am 03:53 Mostly Cloudy with Light Rain 64 17.8 59 15 84 84 WSW 6 9 29.93 1014 10 16.0934 0.001 0.001
4:53 am 04:53 Mostly Clear 66 18.9 62 16.7 87 87 W 6 9 29.92 1013 10 16.0934 0.05 1.27
5:53 am 05:53 Cloudy with Mist and Fog 64 17.8 63 17.2 96 96 Calm 29.91 1013 5 8.0467 0 0
6:30 am 06:30 Cloudy with Nearby Thunderstorms 63 17.2 62 16.7 97 97 VRB 3 6 29.95 1014 4 6.43736 0.01 0.254
6:42 am 06:42 Cloudy with Light Rain 64 17.8 63 17.2 96 96 N 3 6 29.96 1015 5 8.0467 0.02 0.508
6:53 am 06:53 Cloudy with Rain 64 17.8 63 17.2 96 96 N 10 17 29.95 1014 3 4.82802 0.07 1.778
7:53 am 07:53 Cloudy with Rain 62 16.7 60 15.6 93 93 Calm 29.93 1014 5 8.0467 0.01 0.254
8:09 am 08:09 Cloudy with Rain 61 16.1 61 16.1 100 100 SE 5 7 29.93 1013 3 4.82802 0.1 2.54
8:23 am 08:23 Cloudy with Rain 62 16.7 61 16.1 96 96 N 6 9 29.92 1013 6 9.65604 0.1 2.54
8:49 am 08:49 Cloudy with Light Rain 63 17 61 16 94 94 NNE 5 7 29.92 1013 3 4.82802 0.12 3.048
8:53 am 08:53 Cloudy with Light Rain 62 16.7 61 16.1 96 96 NNE 7 11 29.92 1013 4 6.43736 0.12 3.048
9:47 am 09:47 Mostly Cloudy with Thunderstorms 63 17 63 17 100 100 NE 6 9 29.92 1013 7 11.26538 0.001 0.001
9:53 am 09:53 Cloudy with Light Thunderstorms 63 17.2 62 16.7 97 97 N 7 11 29.93 1014 7 11.26538 0.001 0.001
10:53 am 10:53 Cloudy with Nearby Thunderstorms 63 17.2 63 17.2 100 100 Calm 29.91 1013 6 9.65604 0.001 0.001
11:06 am 11:06 Cloudy with Thunderstorms 64 17.8 63 17.2 96 96 N 5 7 29.93 1014 6 9.65604 0 0
11:53 am 11:53 Cloudy with Nearby Thunderstorms 65 18.3 63 17.2 93 93 NE 3 6 29.9 1013 5 8.0467 0 0
12:39 pm 12:39 Cloudy with Light Thunderstorms 65 18.3 63 17.2 93 93 N 5 7 29.9 1013 5 8.0467 0.08 2.032
12:53 pm 12:53 Cloudy with Light Thunderstorms 65 18.3 64 17.8 97 97 E 6 9 29.89 1012 5 8.0467 0.1 2.54
1:08 pm 13:08 Cloudy with Light Rain 65 18.3 64 17.8 97 97 NNE 3 6 29.89 1012 6 9.65604 0.01 0.254
1:15 pm 13:15 Cloudy with Thunderstorms 65 18.3 64 17.8 97 97 ENE 5 7 29.88 1012 6 9.65604 0.01 0.254
1:53 pm 13:53 Cloudy with Light Thunderstorms 65 18.3 63 17.2 93 93 Calm 29.88 1012 5 8.0467 0.02 0.508
2:53 pm 14:53 Cloudy with Light Thunderstorms 64 17.8 64 17.8 100 100 Calm 29.86 1011 4 6.43736 0.14 3.556
3:53 pm 15:53 Cloudy with Mist and Fog 65 18.3 63 17.2 93 93 Calm 29.86 1011 6 9.65604 0.001 0.001
4:53 pm 16:53 Cloudy with Light Rain 65 18.3 63 17.2 93 93 W 5 7 29.84 1011 3 4.82802 0.06 1.524
5:53 pm 17:53 Cloudy 67 19.4 63 17.2 87 87 NNW 6 9 29.81 1009 9 14.48406 0.01 0.254
6:53 pm 18:53 Cloudy with Light Rain 66 18.9 64 17.8 93 93 W 3 6 29.81 1010 10 16.0934 0.001 0.001
7:53 pm 19:53 Cloudy 67 19.4 56 13.3 68 68 N 9 15 29.82 1010 10 16.0934 0.001 0.001
8:53 pm 20:53 Cloudy 63 17.2 47 8.3 56 56 N 8 13 29.87 1012 10 16.0934 0 0
9:02 pm 21:02 Cloudy with Nearby Thunderstorms 62 16.7 47 8.3 58 58 NNW 13 20 29.89 1012 10 16.0934 0.001 0.001
9:10 pm 21:10 Cloudy with Thunderstorms 58 14.4 49 9.4 72 72 N 8 13 29.89 1012 6 9.65604 0.04 1.016
9:37 pm 21:37 Cloudy with Light Rain 56 13.3 53 11.7 90 90 SE 3 6 29.89 1012 10 16.0934 0.04 1.016
9:53 pm 21:53 Cloudy with Light Rain 55 12.8 54 12.2 96 96 Calm 29.89 1012 10 16.0934 0.04 1.016
10:53 pm 22:53 Cloudy 56 13.3 54 12.2 93 93 VRB 3 6 29.92 1013 10 16.0934 0.001 0.001
11:53 pm 23:53 Mostly Clear 53 11.7 52 11.1 96 96 Calm 29.93 1014 10 16.0934 0 0

Powered by AerisWeather